Voltar ao catálogo

PRAETORIAN SDA_514

AtivoPO
NORAD 100072·PAYLOAD·🇺🇸 United States

Lançado Jul 16, 2026 de Vandenberg Space Force Base

Loading…

Próximas Passagens (próximas 24 horas)

TLE

AtualizadoSource: Space-Track

Época: Sep 14, 2026, 09:56 UTC

1 A0072U 26163P   26257.41416264  .00000104  00000-0  80488-4 0  9994
2 A0072  81.4790 255.5479 0013703  58.8881 301.3619 13.85294299  8259

Acompanhe PRAETORIAN SDA_514 em tempo real com AllMySat

Download on the App Store